This is the latest recevied weather packets stored in our database for station/object K7GFH-13. If no packets are shown the sender has not sent any weather packets the latest 10 day(s).
| Time | Temp. | Humidity | Pressure | Rain* | Wind** | Luminosity | Snow |
|---|---|---|---|---|---|---|---|
| 1778078219 | 13.33° C | 88% | 1021.8 hPa | 0 mm | - | 48 W/m² | - |
| 1778077318 | 13.33° C | 88% | 1021.9 hPa | 0 mm | - | 32 W/m² | - |
| 1778076417 | 12.78° C | 88% | 1021.6 hPa | 0 mm | - | 28 W/m² | - |
| 1778075512 | 12.78° C | 89% | 1021.5 hPa | 0 mm | - | 17 W/m² | - |
| 1778074609 | 12.78° C | 89% | 1021.5 hPa | 0 mm | - | 11 W/m² | - |
| 1778073705 | 12.78° C | 89% | 1021.6 hPa | 0 mm | - | 5 W/m² | - |
| 1778072802 | 12.22° C | 89% | 1021.5 hPa | 0 mm | - | 2 W/m² | - |
| 1778071901 | 12.78° C | 89% | 1021.5 hPa | 0 mm | - | 1 W/m² | - |
| 1778070999 | 12.78° C | 89% | 1021.4 hPa | 0 mm | - | 0 W/m² | - |
| 1778070098 | 12.78° C | 88% | 1021.2 hPa | 0 mm | - | 0 W/m² | - |
| 1778069196 | 12.78° C | 88% | 1021.1 hPa | 0 mm | - | 0 W/m² | - |
| 1778068294 | 12.78° C | 87% | 1021 hPa | 0 mm | - | 0 W/m² | - |
| 1778067393 | 12.78° C | 87% | 1020.7 hPa | 0 mm | - | 0 W/m² | - |
| 1778066490 | 13.33° C | 87% | 1020.6 hPa | 0 mm | - | 0 W/m² | - |
| 1778065588 | 13.33° C | 87% | 1020.3 hPa | 0 mm | - | 0 W/m² | - |
| 1778064684 | 13.33° C | 86% | 1020 hPa | 0 mm | - | 0 W/m² | - |
| 1778063783 | 13.33° C | 86% | 1019.8 hPa | 0 mm | - | 0 W/m² | - |
| 1778062881 | 13.33° C | 86% | 1019.7 hPa | 0 mm | - | 0 W/m² | - |
| 1778061979 | 13.89° C | 87% | 1019.7 hPa | 0 mm | - | 0 W/m² | - |
| 1778061077 | 13.89° C | 88% | 1019.7 hPa | 0 mm | - | 0 W/m² | - |
| 1778060176 | 13.89° C | 89% | 1019.7 hPa | 0 mm | - | 0 W/m² | - |
| 1778059273 | 13.89° C | 90% | 1019.6 hPa | 0 mm | - | 0 W/m² | - |
| 1778058373 | 14.44° C | 89% | 1019.5 hPa | 0 mm | - | 0 W/m² | - |
| 1778057468 | 14.44° C | 88% | 1019.6 hPa | 0 mm | - | 0 W/m² | - |
| 1778056564 | 14.44° C | 88% | 1019.6 hPa | 0 mm | - | 0 W/m² | - |
* Rain latest hour (hover to see other rain measurements)
** Current wind speed in m/s (hover to see current wind gust speed)